This demonstration page uses our WeatherBlox Daily Observations layout. Learn more.

Left ArrowRight Arrow

Hourly Observations for October 21, 2022

Temp ( °F °C ) Dew Point ( °F °C ) Humidity (%) Winds ( mph kmh ) Pressure ( in mb ) Visibility ( mi km ) Precip ( " mm )
12:53 am 00:53 Cloudy 42 5.6 31 -0.6 64 64 SSW 5 7 29.74 1007 N/A 0.00 0.00
1:53 am 01:53 Cloudy 42 5.6 31 -0.6 64 64 S 6 9 29.72 1006 N/A 0.00 0.00
2:53 am 02:53 Cloudy 42 5.6 31 -0.6 64 64 Calm 29.69 1006 N/A 0.00 0.00
3:53 am 03:53 Cloudy 44 6.7 32 0 62 62 Calm 29.68 1005 N/A 0.00 0.00
4:53 am 04:53 Cloudy 43 6.1 32 0 65 65 ESE 6 9 29.64 1004 N/A 0.00 0.00
5:53 am 05:53 Cloudy 44 6.7 32 0 62 62 ENE 8 13 29.59 1002 N/A 0.00 0.00
6:53 am 06:53 Cloudy 45 7.2 33 0.6 63 63 ENE 8 13 29.57 1001 N/A 0.00 0.00
7:53 am 07:53 Cloudy 44 6.7 32 0 62 62 ENE 6 9 29.55 1001 N/A 0.00 0.00
8:53 am 08:53 Cloudy 44 6.7 34 1.1 67 67 NE 7 11 29.59 1002 N/A 0.00 0.00
9:53 am 09:53 Cloudy 44 6.7 35 1.7 70 70 Calm 29.61 1003 N/A 0.01 0.13
10:53 am 10:53 Cloudy with Light Rain 44 6.7 39 3.9 82 82 Calm 29.63 1003 N/A 0.01 0.25
11:53 am 11:53 Cloudy with Light Rain 44 6.7 39 3.9 82 82 Calm 29.63 1003 N/A 0.01 0.25
12:53 pm 12:53 Cloudy with Light Rain 47 8.3 43 6.1 86 86 Calm 29.60 1002 N/A 0.01 0.25
1:53 pm 13:53 Cloudy with Light Rain 48 8.9 44 6.7 86 86 W 6 9 29.59 1002 N/A 0.02 0.51
2:53 pm 14:53 Cloudy 49 9.4 44 6.7 83 83 W 8 13 29.56 1001 N/A 0.01 0.13
3:53 pm 15:53 Cloudy with Light Rain 47 8.3 45 7.2 93 93 W 8 13 29.57 1001 N/A 0.01 0.25
4:33 pm 16:33 Cloudy with Light Rain 47 8.3 45 7.2 93 93 WNW 10 17 29.57 1001 N/A 0.02 0.51
4:53 pm 16:53 Cloudy with Light Rain 46 7.8 44 6.7 93 93 WNW 12 19 29.58 1002 N/A 0.03 0.76
5:53 pm 17:53 Cloudy with Light Rain 45 7.2 44 6.7 97 97 WNW 5 7 29.58 1002 N/A 0.03 0.76
6:53 pm 18:53 Cloudy with Light Rain 45 7.2 44 6.7 97 97 SW 5 7 29.57 1001 N/A 0.02 0.51
7:16 pm 19:16 Cloudy with Light Rain 45 7.2 44 6.7 97 97 SW 6 9 29.56 1001 N/A 0.01 0.13
7:30 pm 19:30 Cloudy with Light Rain 44 6.7 44 6.7 100 100 SSW 6 9 29.57 1001 N/A 0.01 0.25
7:53 pm 19:53 Cloudy with Light Rain 44 6.7 44 6.7 100 100 SW 6 9 29.57 1001 N/A 0.02 0.51
8:08 pm 20:08 Cloudy with Light Rain 44 6.7 44 6.7 100 100 SW 6 9 29.56 1001 N/A 0.01 0.25
8:46 pm 20:46 Cloudy with Light Rain 44 6.7 43 6.1 96 96 WSW 6 9 29.56 1001 N/A 0.03 0.76
8:55 pm 20:55 Cloudy with Light Rain 44 6.7 43 6.1 96 96 SW 5 7 29.56 1001 N/A 0.01 0.13
9:53 pm 21:53 Cloudy with Light Rain 44 6.7 43 6.1 96 96 WSW 7 11 29.54 1001 N/A 0.04 1.02
10:28 pm 22:28 Cloudy with Light Rain 44 6.7 43 6.1 96 96 WSW 8 13 29.54 1000 N/A 0.03 0.76
10:44 pm 22:44 Cloudy with Light Rain 43 6.1 42 5.6 97 97 W 5 7 29.56 1001 N/A 0.04 1.02
10:53 pm 22:53 Cloudy with Light Rain 43 6.1 42 5.6 97 97 Calm 29.54 1000 N/A 0.05 1.27
11:12 pm 23:12 Cloudy 43 6.1 42 5.6 97 97 W 3 6 29.55 1001 N/A 0.01 0.13
11:20 pm 23:20 Cloudy 43 6.1 42 5.6 97 97 W 3 6 29.55 1001 N/A 0.01 0.13
11:37 pm 23:37 Cloudy with Light Rain 43 6.1 42 5.6 97 97 WNW 3 6 29.55 1001 N/A 0.01 0.13
11:46 pm 23:46 Cloudy with Light Rain 43 6.1 42 5.6 97 97 Calm 29.54 1000 N/A 0.01 0.13
11:53 pm 23:53 Cloudy with Light Rain 43 6.1 42 5.6 97 97 Calm 29.53 1000 N/A 0.01 0.25

Powered by AerisWeather